This is the latest recevied weather packets stored in our database for station/object WB4YDL. If no packets are shown the sender has not sent any weather packets the latest 10 day(s).
| Time | Temp. | Humidity | Pressure | Rain* | Wind** | Luminosity | Snow |
|---|---|---|---|---|---|---|---|
| 1777470447 | 15° C | 99% | 1009.8 hPa | 0 mm | - | 52 W/m² | - |
| 1777470144 | 14.44° C | 99% | 1009.7 hPa | 0 mm | - | 38 W/m² | - |
| 1777469841 | 15° C | 99% | 1009.7 hPa | 0 mm | - | 51 W/m² | - |
| 1777469536 | 15° C | 99% | 1009.6 hPa | 0 mm | - | 45 W/m² | - |
| 1777469230 | 15° C | 99% | 1009.4 hPa | 0 mm | - | 56 W/m² | - |
| 1777468925 | 15° C | 99% | 1009.3 hPa | 0 mm | - | 37 W/m² | - |
| 1777468622 | 15° C | 99% | 1009.3 hPa | 0 mm | - | 37 W/m² | - |
| 1777468319 | 15° C | 99% | 1009.1 hPa | 0 mm | - | 43 W/m² | - |
| 1777468015 | 15° C | 99% | 1009 hPa | 0 mm | - | 38 W/m² | - |
| 1777467710 | 15° C | 99% | 1008.9 hPa | 1.27 mm | - | 82 W/m² | - |
| 1777467406 | 15° C | 99% | 1008.9 hPa | 1.27 mm | - | 53 W/m² | - |
| 1777467102 | 15° C | 99% | 1008.6 hPa | 0 mm | - | 44 W/m² | - |
| 1777466799 | 15.56° C | 99% | 1008.4 hPa | 0 mm | - | 42 W/m² | - |
| 1777466497 | 15.56° C | 99% | 1008.4 hPa | 0 mm | - | 47 W/m² | - |
| 1777466193 | 15.56° C | 99% | 1008.3 hPa | 0 mm | - | 39 W/m² | - |
| 1777465889 | 15.56° C | 99% | 1008.4 hPa | 0 mm | - | 41 W/m² | - |
| 1777465586 | 15.56° C | 99% | 1008 hPa | 0 mm | - | 36 W/m² | - |
| 1777465281 | 15.56° C | 99% | 1008 hPa | 0 mm | - | 47 W/m² | - |
| 1777464970 | 15.56° C | 99% | 1007.9 hPa | 0 mm | - | 46 W/m² | - |
| 1777464664 | 15.56° C | 99% | 1007.6 hPa | 0 mm | - | 42 W/m² | - |
| 1777464355 | 15.56° C | 99% | 1007.2 hPa | 0 mm | - | 34 W/m² | - |
| 1777464051 | 15.56° C | 99% | 1007 hPa | 0 mm | - | 39 W/m² | - |
| 1777463746 | 15.56° C | 99% | 1007.2 hPa | 0 mm | - | 43 W/m² | - |
| 1777463441 | 15.56° C | 99% | 1006.9 hPa | 0 mm | - | 23 W/m² | - |
| 1777463137 | 15.56° C | 99% | 1007.2 hPa | 0 mm | - | 23 W/m² | - |
* Rain latest hour (hover to see other rain measurements)
** Current wind speed in m/s (hover to see current wind gust speed)